User: anonymous   Login
Location: Caltech
(34.1382°N, 118.1253°W)
Time: 11:53:02
(UTC-08:00)
Language:

FENGYUN 3A - Orbit

View from above orbital plane
View from above orbital plane
View from above satellite
View from above satellite

Ground track
Ground track

The orbit data is extracted from the following two-line orbital elements,

1 32958U 08026A   18054.47036271 -.00000006  00000-0  16324-4 0  9998
2 32958  98.3885  75.3072 0008318 272.1514  87.8714 14.19693434504981
Epoch (UTC): 23 February 2018 11:17:19
Eccentricity: 0.0008318
inclination: 98.3885°
perigee height: 820 km
apogee height: 832 km
right ascension of ascending node: 75.3072°
argument of perigee: 272.1514°
revolutions per day: 14.19693434
mean anomaly at epoch: 87.8714°
orbit number at epoch: 50498

The dashed part of the orbit path shows where the satellite is in the earth's shadow,  

DLR